星链-32662 (STARLINK-32662)

导读 | 星芒AI

STARLINK-32662 是 SpaceX 星链计划中的一颗低轨通信卫星,属于第 11 批星链卫星(Group 11)。该卫星于 2023 年 9 月 27 日由猎鹰 9 号火箭从美国佛罗里达州肯尼迪航天中心发射升空。它运行在约 550 公里的高度,旨在为全球提供高速互联网服务。该卫星采用 SpaceX 最新一代星链卫星设计,具备激光通信和自主避障能力,有助于提升网络稳定性和减少空间碎片风险。

基本信息
目录编号:
62215
目录名称:
STARLINK-32662
国际标识:
2024-229Z
轨道中心:
EARTH
卫星名称:
星链-32662
卫星全名:
星链-32662 (STARLINK-32662)
卫星状态:
在轨 (已飞行381 天)
发射日期:
2024-12-04 UTC
国别 :
美国 (US)
星等 :
--
轨道信息
数据来源 国际轨道数据
星历时间: 2025-12-20T02:02:40+0800
16小时前
查看轨道信息
半长轴: 6861.183km
偏心率: 0.0001577
轨道倾角: 43.004°
近地点辐角 275.995°
升交点赤经 2.355°
平近点角 84.072°
近地点: 481.963km
远地点: 484.129km
周期: 94.267分钟
每日圈数: 15.275812
详细信息
固有亮度:
5
最大亮度:
2.5
卫星平台:
Starlink V1.0
覆盖范围:
全球
运营商:
太空探索技术公司
运营商所在国:
美国
制造商(研发单位):
太空探索技术公司
制造商所在国:
美国
使用方式:
暂无
卫星简介
Starlink 计划是 SpaceX 推出的全球卫星互联网项目,通过发射低轨道卫星,为全球尤其是偏远地区提供高速、低延迟的互联网服务。自 2019 年起,Starlink 已部署数千颗卫星,旨在缩小全球数字鸿沟,推动互联网普及。该项目还为军事、航空等行业提供通信支持,带来广泛经济效益。
2D轨道图
3D轨道图
轨道高度分析图
轨道倾角分析图
轨道综合分析图
查看轨道综合分析图